Location: Asbacherhof
(48.8543°N, 10.7903°E)
Time: 23:07:58
(UTC+00:00)

Cosmos 1867 - Pass Details

Date: 26 May 2022
Orbit: 775 x 801 km, 65.0° (Epoch: 26 June)

Event Time Altitude Azimuth Distance (km) Brightness Sun altitude
Exits shadow 00:05:01 28° 231° (SW) 1,449 4.5 -19.1°
Maximum altitude 00:07:55 73° 310° (NW) 837 3.7 -19.0°
Drops below altitude 10° 00:13:25 10° 36° (NE) 2,384 7.1 -18.8°
Sets 00:15:53 0° 39° (NE) 3,319 8.0 -18.7°
